Location: Hilton Head Island
(32.2163°N, 80.7526°W)
Time: 16:18:33
(UTC-05:00)

Explorer 11/Cluster Stage 4 - Pass Details

Date: 19 February 2026
Orbit: 463 x 1176 km, 28.8° (Epoch: 6 March)

Event Time Altitude Azimuth Distance (km) Brightness Sun altitude
Rises 12:41:37 0° 243° (WSW) 3,033 9.9 46.7°
Reaches altitude 10° 12:44:20 10° 235° (SW) 1,996 9.2 46.7°
Maximum altitude 12:48:31 36° 169° (S) 883 8.8 46.6°
Drops below altitude 10° 12:52:08 10° 101° (E) 1,713 8.5 46.5°
Sets 12:54:18 0° 92° (E) 2,540 9.2 46.5°
